Location: Gallinara
(44.0333°N, 8.2333°E)
Time: 11:03:02
(UTC+00:00)

IDEFIX/ARIANE 42P - Pass Details

Date: 25 September 2020
Orbit: 786 x 802 km, 98.4° (Epoch: 24 October)

Event Time Altitude Azimuth Distance (km) Brightness Sun altitude
Rises 03:55:02 0° 1° (N) 3,325 6.0 -15.6°
Reaches altitude 10° 03:57:52 10° 346° (NNW) 2,389 5.1 -15.1°
Maximum altitude 04:01:46 21° 298° (WNW) 1,718 3.9 -14.4°
Enters shadow 04:03:11 19° 276° (W) 1,820 3.9 -14.2°
